Вернуться в каталог

STARLINK-4483

АктивенСвязьVLEO
NORAD 53532·PAYLOAD·🇺🇸 United States

Запущен Aug 19, 2022 с Cape Canaveral Space Force Station

Loading…

Ближайшие Пролёты (ближайшие 24 часа)

TLE

СвежийSource: CelesTrak SupGP

Эпоха: Sep 14, 2026, 20:39 UTC

1 53532C 22101F   26257.86090278 -.00016851  00000+0 -10570-2 0  2570
2 53532  53.1586 304.2731 0001150  87.9255 327.1327 15.08835903    19

Отслеживайте STARLINK-4483 в реальном времени с AllMySat

Download on the App Store